Home   Weather   Lautoka   Past weeks

Flag for Fiji Past Weather in Lautoka, Fiji — Yesterday and Last 2 Weeks

Now
72 °F

Passing clouds.


Feels Like: 75 °F
Forecast: 67 / 82 °F
Wind: 10 mph from East

Location: Nandi

Current Time: Jul 28, 2017 at 9:00:47 am

Latest Report: Jul 28, 2017 at 8:00 am


Visibility: N/A

Pressure: 30.04 "Hg

Humidity: 65%

Dew Point: 59 °F

Location of LautokaLocation

Past Weather in Lautoka — Graph

°F

Lautoka Temperature Yesterday

Maximum temperature yesterday: 82 °F (at 12:00 pm)
Minimum temperature yesterday: 68 °F (at 4:00 am)
Average temperature yesterday: 74 °F

High & Low Weather Summary for the Past Weeks

 TemperatureHumidityPressure
High91 °F (Jul 20, 2:00 pm)94% (Jul 19, 4:00 am)30.09 "Hg (Jul 19, 4:00 am)
Low64 °F (Jul 18, 5:00 am)35% (Jul 27, 12:00 pm)29.80 "Hg (Jul 20, 3:00 pm)
Average75 °F72%29.96 "Hg
* Reported Jul 13 8:00 am — Jul 28 8:00 am, Lautoka. Weather by CustomWeather, © 2017

Note: Actual official high and low records may vary slightly from our data, if they occured in-between our weather recording intervals... More about our weather records

Advertising

Lautoka Weather History for the Previous 24 Hours

Scroll right to see more
 ConditionsComfort  
Time TempWeatherWind HumidityBarometerVisibility
8:00 am
Fri, Jul 28
72 °FPassing clouds.10 mph65%30.04 "HgN/A
7:00 am70 °FPartly sunny.10 mph69%30.01 "HgN/A
6:00 am68 °FPassing clouds.9 mph73%30.01 "HgN/A
5:00 am66 °FPassing clouds.9 mph78%29.98 "HgN/A
4:00 am66 °FPassing clouds.6 mph78%29.98 "HgN/A
3:00 am66 °FPassing clouds.7 mph78%29.98 "HgN/A
2:00 am68 °FPassing clouds.7 mph73%30.01 "HgN/A
1:00 am68 °FPassing clouds.10 mph73%30.01 "HgN/A
12:00 am70 °FPassing clouds.9 mph73%30.01 "HgN/A
11:00 pm
Thu, Jul 27
70 °FPassing clouds.8 mph73%30.01 "HgN/A
10:00 pm70 °FPassing clouds.7 mph73%30.01 "HgN/A
9:00 pm72 °FPassing clouds.8 mph69%30.01 "HgN/A
8:00 pm73 °FPassing clouds.8 mph65%29.98 "HgN/A
7:00 pm73 °FPassing clouds.5 mph69%29.98 "HgN/A
6:00 pm75 °FPassing clouds.6 mph65%29.95 "HgN/A
5:00 pm79 °FPassing clouds.10 mph58%29.92 "HgN/A
4:00 pm81 °FPassing clouds.8 mph58%29.92 "HgN/A
3:00 pm81 °FScattered clouds.13 mph48%29.92 "HgN/A
2:00 pm82 °FScattered clouds.10 mph37%29.92 "HgN/A
1:00 pm81 °FScattered clouds.2 mph39%29.95 "HgN/A
12:00 pm82 °FScattered clouds.2 mph35%29.98 "HgN/A
11:00 am81 °FScattered clouds.7 mph39%30.01 "HgN/A
10:00 am77 °FScattered clouds.10 mph47%30.01 "HgN/A
9:00 am73 °FPartly sunny.12 mph53%30.01 "HgN/A
Weather by CustomWeather, © 2017

See weather overviewHow to use our weather pages